Time,TemperatureF,DewpointF,PressureIn,WindDirection,WindDirectionDegrees,WindSpeedMPH,WindSpeedGustMPH,Humidity,HourlyPrecipIn,Conditions,Clouds,dailyrainin,SoftwareType,DateUTC
2013-02-16 00:03:00,30.6,24.0,30.29,North,0,0.0,0.0,76,0.00,,,0.00,WUHU216HW,2013-02-16 06:03:00,
2013-02-16 00:08:00,30.4,23.8,30.29,North,0,0.0,0.0,76,0.00,,,0.00,WUHU216HW,2013-02-16 06:08:00,
2013-02-16 00:13:00,30.2,23.6,30.30,North,0,0.0,0.0,76,0.00,,,0.00,WUHU216HW,2013-02-16 06:13:00,
2013-02-16 00:18:00,30.1,23.4,30.30,North,0,0.0,0.0,76,0.00,,,0.00,WUHU216HW,2013-02-16 06:18:00,
2013-02-16 00:23:00,29.9,23.2,30.30,North,0,0.0,0.0,76,0.00,,,0.00,WUHU216HW,2013-02-16 06:23:00,
2013-02-16 00:28:00,29.9,23.5,30.30,North,0,0.0,0.0,77,0.00,,,0.00,WUHU216HW,2013-02-16 06:28:00,
2013-02-16 00:33:00,29.7,23.3,30.30,North,0,0.0,0.0,77,0.00,,,0.00,WUHU216HW,2013-02-16 06:33:00,
2013-02-16 00:38:00,29.9,23.2,30.30,North,0,0.0,0.0,76,0.00,,,0.00,WUHU216HW,2013-02-16 06:38:00,
2013-02-16 00:43:00,30.1,23.4,30.30,North,0,0.0,0.0,76,0.00,,,0.00,WUHU216HW,2013-02-16 06:43:00,
2013-02-16 00:48:00,30.2,23.6,30.30,North,0,0.0,0.0,76,0.00,,,0.00,WUHU216HW,2013-02-16 06:48:00,
2013-02-16 00:53:00,30.4,23.8,30.31,North,0,0.0,0.0,76,0.00,,,0.00,WUHU216HW,2013-02-16 06:53:00,
2013-02-16 00:58:00,30.1,23.4,30.31,North,0,0.0,0.0,76,0.00,,,0.00,WUHU216HW,2013-02-16 06:58:00,
2013-02-16 01:03:00,29.9,23.5,30.31,North,0,0.0,0.0,77,0.00,,,0.00,WUHU216HW,2013-02-16 07:03:00,
2013-02-16 01:08:00,30.2,23.6,30.30,North,0,0.0,0.0,76,0.00,,,0.00,WUHU216HW,2013-02-16 07:08:00,
2013-02-16 01:13:00,30.1,23.4,30.31,North,0,0.0,0.0,76,0.00,,,0.00,WUHU216HW,2013-02-16 07:13:00,
2013-02-16 01:18:00,30.2,22.9,30.31,North,0,0.0,0.0,74,0.00,,,0.00,WUHU216HW,2013-02-16 07:18:00,
2013-02-16 01:23:00,30.6,22.6,30.30,North,0,0.0,0.0,72,0.00,,,0.00,WUHU216HW,2013-02-16 07:23:00,
2013-02-16 01:28:00,30.8,22.5,30.30,North,0,0.0,0.0,71,0.00,,,0.00,WUHU216HW,2013-02-16 07:28:00,
2013-02-16 01:33:00,31.0,22.7,30.30,North,0,0.0,0.0,71,0.00,,,0.00,WUHU216HW,2013-02-16 07:33:00,
2013-02-16 01:38:00,31.0,22.7,30.30,North,0,0.0,0.0,71,0.00,,,0.00,WUHU216HW,2013-02-16 07:38:00,
2013-02-16 01:43:00,30.8,22.1,30.31,North,0,0.0,0.0,70,0.00,,,0.00,WUHU216HW,2013-02-16 07:43:00,
2013-02-16 01:48:00,30.4,22.2,30.30,North,0,0.0,0.0,71,0.00,,,0.00,WUHU216HW,2013-02-16 07:48:00,
2013-02-16 01:53:00,30.2,22.0,30.30,North,0,0.0,0.0,71,0.00,,,0.00,WUHU216HW,2013-02-16 07:53:00,
2013-02-16 01:58:00,30.2,22.2,30.30,North,0,0.0,0.0,72,0.00,,,0.00,WUHU216HW,2013-02-16 07:58:00,
2013-02-16 02:03:00,30.4,22.4,30.30,North,0,0.0,0.0,72,0.00,,,0.00,WUHU216HW,2013-02-16 08:03:00,
2013-02-16 02:08:00,30.2,22.2,30.30,North,0,0.0,0.0,72,0.00,,,0.00,WUHU216HW,2013-02-16 08:08:00,
2013-02-16 02:13:00,30.6,22.6,30.29,North,0,0.0,0.0,72,0.00,,,0.00,WUHU216HW,2013-02-16 08:13:00,
2013-02-16 02:18:00,30.4,22.2,30.29,North,0,0.0,0.0,71,0.00,,,0.00,WUHU216HW,2013-02-16 08:18:00,
2013-02-16 02:23:00,29.9,21.6,30.29,North,0,0.0,0.0,71,0.00,,,0.00,WUHU216HW,2013-02-16 08:23:00,
2013-02-16 02:28:00,29.5,21.9,30.29,North,0,0.0,0.0,73,0.00,,,0.00,WUHU216HW,2013-02-16 08:28:00,
2013-02-16 02:33:00,29.2,21.6,30.29,North,0,0.0,0.0,73,0.00,,,0.00,WUHU216HW,2013-02-16 08:33:00,
2013-02-16 02:38:00,28.8,21.3,30.29,North,0,0.0,0.0,73,0.00,,,0.00,WUHU216HW,2013-02-16 08:38:00,
2013-02-16 02:43:00,28.6,22.3,30.29,North,0,0.0,0.0,77,0.00,,,0.00,WUHU216HW,2013-02-16 08:43:00,
2013-02-16 02:48:00,28.4,23.0,30.30,North,0,0.0,0.0,80,0.00,,,0.00,WUHU216HW,2013-02-16 08:48:00,
2013-02-16 02:53:00,28.8,22.5,30.29,North,0,0.0,0.0,77,0.00,,,0.00,WUHU216HW,2013-02-16 08:53:00,
2013-02-16 02:58:00,28.8,22.1,30.30,North,0,0.0,0.0,76,0.00,,,0.00,WUHU216HW,2013-02-16 08:58:00,
2013-02-16 03:03:00,28.8,22.5,30.30,North,0,0.0,0.0,77,0.00,,,0.00,WUHU216HW,2013-02-16 09:03:00,
2013-02-16 03:08:00,28.6,22.0,30.30,North,0,0.0,0.0,76,0.00,,,0.00,WUHU216HW,2013-02-16 09:08:00,
2013-02-16 03:13:00,28.8,22.1,30.30,North,0,0.0,0.0,76,0.00,,,0.00,WUHU216HW,2013-02-16 09:13:00,
2013-02-16 03:18:00,28.8,22.1,30.30,North,0,0.0,0.0,76,0.00,,,0.00,WUHU216HW,2013-02-16 09:18:00,
2013-02-16 03:23:00,28.8,21.9,30.30,North,0,0.0,0.0,75,0.00,,,0.00,WUHU216HW,2013-02-16 09:23:00,
2013-02-16 03:28:00,28.8,22.1,30.30,North,0,0.0,0.0,76,0.00,,,0.00,WUHU216HW,2013-02-16 09:28:00,
2013-02-16 03:33:00,28.8,22.8,30.30,North,0,0.0,0.0,78,0.00,,,0.00,WUHU216HW,2013-02-16 09:33:00,
2013-02-16 03:38:00,28.6,22.0,30.30,North,0,0.0,0.0,76,0.00,,,0.00,WUHU216HW,2013-02-16 09:38:00,
2013-02-16 03:43:00,28.4,22.2,30.30,North,0,0.0,0.0,77,0.00,,,0.00,WUHU216HW,2013-02-16 09:43:00,
2013-02-16 03:48:00,28.4,21.5,30.30,North,0,0.0,0.0,75,0.00,,,0.00,WUHU216HW,2013-02-16 09:48:00,
2013-02-16 03:53:00,28.4,21.5,30.30,North,0,0.0,0.0,75,0.00,,,0.00,WUHU216HW,2013-02-16 09:53:00,
2013-02-16 03:58:00,28.4,21.5,30.30,North,0,0.0,0.0,75,0.00,,,0.00,WUHU216HW,2013-02-16 09:58:00,
2013-02-16 04:03:00,28.4,21.5,30.29,North,0,0.0,0.0,75,0.00,,,0.00,WUHU216HW,2013-02-16 10:03:00,
2013-02-16 04:08:00,28.4,22.2,30.30,North,0,0.0,0.0,77,0.00,,,0.00,WUHU216HW,2013-02-16 10:08:00,
2013-02-16 04:13:00,28.4,22.8,30.30,North,0,0.0,0.0,79,0.00,,,0.00,WUHU216HW,2013-02-16 10:13:00,
2013-02-16 04:18:00,28.4,23.6,30.31,North,0,0.0,0.0,82,0.00,,,0.00,WUHU216HW,2013-02-16 10:18:00,
2013-02-16 04:23:00,28.6,23.8,30.31,North,0,0.0,0.0,82,0.00,,,0.00,WUHU216HW,2013-02-16 10:23:00,
2013-02-16 04:28:00,28.8,23.4,30.31,North,0,0.0,0.0,80,0.00,,,0.00,WUHU216HW,2013-02-16 10:28:00,
2013-02-16 04:33:00,29.2,23.8,30.31,North,0,0.0,0.0,80,0.00,,,0.00,WUHU216HW,2013-02-16 10:33:00,
2013-02-16 04:38:00,29.3,23.7,30.31,North,0,0.0,0.0,79,0.00,,,0.00,WUHU216HW,2013-02-16 10:38:00,
2013-02-16 04:43:00,29.5,23.5,30.31,North,0,0.0,0.0,78,0.00,,,0.00,WUHU216HW,2013-02-16 10:43:00,
2013-02-16 04:48:00,30.1,24.0,30.30,North,0,0.0,0.0,78,0.00,,,0.00,WUHU216HW,2013-02-16 10:48:00,
2013-02-16 04:53:00,30.1,24.0,30.31,North,0,0.0,0.0,78,0.00,,,0.00,WUHU216HW,2013-02-16 10:53:00,
2013-02-16 04:58:00,30.2,24.2,30.31,North,0,0.0,0.0,78,0.00,,,0.00,WUHU216HW,2013-02-16 10:58:00,
2013-02-16 05:03:00,30.6,24.2,30.31,North,0,0.0,0.0,77,0.00,,,0.00,WUHU216HW,2013-02-16 11:03:00,
2013-02-16 05:08:00,30.4,24.0,30.31,North,0,0.0,0.0,77,0.00,,,0.00,WUHU216HW,2013-02-16 11:08:00,
2013-02-16 05:13:00,30.1,23.4,30.31,North,0,0.0,0.0,76,0.00,,,0.00,WUHU216HW,2013-02-16 11:13:00,
2013-02-16 05:18:00,29.9,22.9,30.31,North,0,0.0,0.0,75,0.00,,,0.00,WUHU216HW,2013-02-16 11:18:00,
2013-02-16 05:23:00,29.5,22.5,30.31,North,0,0.0,0.0,75,0.00,,,0.00,WUHU216HW,2013-02-16 11:23:00,
2013-02-16 05:28:00,29.3,22.4,30.31,North,0,0.0,0.0,75,0.00,,,0.00,WUHU216HW,2013-02-16 11:28:00,
2013-02-16 05:33:00,29.2,22.2,30.31,North,0,0.0,0.0,75,0.00,,,0.00,WUHU216HW,2013-02-16 11:33:00,
2013-02-16 05:38:00,29.2,23.1,30.31,North,0,0.0,0.0,78,0.00,,,0.00,WUHU216HW,2013-02-16 11:38:00,
2013-02-16 05:43:00,29.2,22.9,30.31,North,0,0.0,0.0,77,0.00,,,0.00,WUHU216HW,2013-02-16 11:43:00,
2013-02-16 05:48:00,28.8,22.5,30.31,North,0,0.0,0.0,77,0.00,,,0.00,WUHU216HW,2013-02-16 11:48:00,
2013-02-16 05:53:00,29.0,24.1,30.31,North,0,0.0,0.0,82,0.00,,,0.00,WUHU216HW,2013-02-16 11:53:00,
2013-02-16 05:58:00,29.0,24.1,30.31,North,0,0.0,0.0,82,0.00,,,0.00,WUHU216HW,2013-02-16 11:58:00,
2013-02-16 06:03:00,28.8,24.3,30.31,North,0,0.0,0.0,83,0.00,,,0.00,WUHU216HW,2013-02-16 12:03:00,
2013-02-16 06:08:00,29.2,24.3,30.32,North,0,0.0,0.0,82,0.00,,,0.00,WUHU216HW,2013-02-16 12:08:00,
2013-02-16 06:13:00,29.3,24.9,30.31,North,0,0.0,0.0,83,0.00,,,0.00,WUHU216HW,2013-02-16 12:13:00,
2013-02-16 06:18:00,29.3,24.9,30.31,North,0,0.0,0.0,83,0.00,,,0.00,WUHU216HW,2013-02-16 12:18:00,
2013-02-16 06:23:00,29.5,24.4,30.31,North,0,0.0,0.0,81,0.00,,,0.00,WUHU216HW,2013-02-16 12:23:00,
2013-02-16 06:28:00,29.5,24.1,30.31,North,0,0.0,0.0,80,0.00,,,0.00,WUHU216HW,2013-02-16 12:28:00,
2013-02-16 06:33:00,29.3,24.2,30.31,North,0,0.0,0.0,81,0.00,,,0.00,WUHU216HW,2013-02-16 12:33:00,
2013-02-16 06:38:00,29.5,25.0,30.32,North,0,0.0,0.0,83,0.00,,,0.00,WUHU216HW,2013-02-16 12:38:00,
2013-02-16 06:43:00,29.7,25.2,30.32,North,0,0.0,0.0,83,0.00,,,0.00,WUHU216HW,2013-02-16 12:43:00,
2013-02-16 06:48:00,29.9,25.4,30.32,North,0,0.0,0.0,83,0.00,,,0.00,WUHU216HW,2013-02-16 12:48:00,
2013-02-16 06:53:00,29.9,25.9,30.31,North,0,0.0,0.0,85,0.00,,,0.00,WUHU216HW,2013-02-16 12:53:00,
2013-02-16 06:58:00,29.9,25.7,30.32,North,0,0.0,0.0,84,0.00,,,0.00,WUHU216HW,2013-02-16 12:58:00,
2013-02-16 07:03:00,29.9,25.9,30.32,North,0,0.0,0.0,85,0.00,,,0.00,WUHU216HW,2013-02-16 13:03:00,
2013-02-16 07:08:00,29.9,25.4,30.32,North,0,0.0,0.0,83,0.00,,,0.00,WUHU216HW,2013-02-16 13:08:00,
2013-02-16 07:13:00,30.2,25.1,30.32,North,0,0.0,0.0,81,0.00,,,0.00,WUHU216HW,2013-02-16 13:13:00,
2013-02-16 07:18:00,31.0,25.2,30.32,North,0,0.0,0.0,79,0.00,,,0.00,WUHU216HW,2013-02-16 13:18:00,
2013-02-16 07:23:00,31.1,25.4,30.32,North,0,0.0,0.0,79,0.00,,,0.00,WUHU216HW,2013-02-16 13:23:00,
2013-02-16 07:28:00,31.3,25.3,30.33,North,0,0.0,0.0,78,0.00,,,0.00,WUHU216HW,2013-02-16 13:28:00,
2013-02-16 07:33:00,31.7,25.7,30.32,North,0,0.0,0.0,78,0.00,,,0.00,WUHU216HW,2013-02-16 13:33:00,
2013-02-16 07:38:00,31.5,25.5,30.33,North,0,0.0,0.0,78,0.00,,,0.00,WUHU216HW,2013-02-16 13:38:00,
2013-02-16 07:43:00,31.7,25.7,30.33,North,0,0.0,0.0,78,0.00,,,0.00,WUHU216HW,2013-02-16 13:43:00,
2013-02-16 07:48:00,31.7,25.9,30.33,North,0,0.0,0.0,79,0.00,,,0.00,WUHU216HW,2013-02-16 13:48:00,
2013-02-16 07:53:00,32.0,26.3,30.34,North,0,0.0,0.0,79,0.00,,,0.00,WUHU216HW,2013-02-16 13:53:00,
2013-02-16 07:58:00,32.9,27.5,30.33,North,0,0.0,0.0,80,0.00,,,0.00,WUHU216HW,2013-02-16 13:58:00,
2013-02-16 08:03:00,34.6,28.4,30.34,North,0,0.0,0.0,78,0.00,,,0.00,WUHU216HW,2013-02-16 14:03:00,
2013-02-16 08:08:00,34.7,27.9,30.34,North,0,0.0,0.0,76,0.00,,,0.00,WUHU216HW,2013-02-16 14:08:00,
2013-02-16 08:13:00,34.6,28.0,30.34,North,0,0.0,0.0,77,0.00,,,0.00,WUHU216HW,2013-02-16 14:13:00,
2013-02-16 08:18:00,34.6,28.0,30.34,North,0,0.0,0.0,77,0.00,,,0.00,WUHU216HW,2013-02-16 14:18:00,
2013-02-16 08:23:00,35.1,28.5,30.34,North,0,0.0,0.0,77,0.00,,,0.00,WUHU216HW,2013-02-16 14:23:00,
2013-02-16 08:28:00,36.9,30.3,30.34,North,0,0.0,0.0,77,0.00,,,0.00,WUHU216HW,2013-02-16 14:28:00,
2013-02-16 08:33:00,39.8,31.8,30.34,North,0,0.0,0.0,73,0.00,,,0.00,WUHU216HW,2013-02-16 14:33:00,
2013-02-16 08:38:00,41.8,31.2,30.34,North,0,0.0,0.0,66,0.00,,,0.00,WUHU216HW,2013-02-16 14:38:00,
2013-02-16 08:43:00,42.1,30.0,30.34,North,0,0.0,0.0,62,0.00,,,0.00,WUHU216HW,2013-02-16 14:43:00,
2013-02-16 08:48:00,43.0,31.7,30.34,North,0,0.0,0.0,64,0.00,,,0.00,WUHU216HW,2013-02-16 14:48:00,
2013-02-16 08:53:00,44.3,31.3,30.34,North,0,0.0,0.0,60,0.00,,,0.00,WUHU216HW,2013-02-16 14:53:00,
2013-02-16 08:58:00,45.0,31.2,30.34,North,0,0.0,0.0,58,0.00,,,0.00,WUHU216HW,2013-02-16 14:58:00,
2013-02-16 09:03:00,44.6,30.8,30.34,North,0,0.0,0.0,58,0.00,,,0.00,WUHU216HW,2013-02-16 15:03:00,
2013-02-16 09:08:00,45.4,31.4,30.33,North,0,0.0,0.0,58,0.00,,,0.00,WUHU216HW,2013-02-16 15:08:00,
2013-02-16 09:13:00,47.5,33.0,30.34,North,0,0.0,0.0,57,0.00,,,0.00,WUHU216HW,2013-02-16 15:13:00,
2013-02-16 09:18:00,47.5,32.6,30.33,North,0,0.0,0.0,56,0.00,,,0.00,WUHU216HW,2013-02-16 15:18:00,
2013-02-16 09:23:00,46.3,31.8,30.34,North,0,0.0,0.0,57,0.00,,,0.00,WUHU216HW,2013-02-16 15:23:00,
2013-02-16 09:28:00,46.1,31.6,30.34,North,0,0.0,0.0,57,0.00,,,0.00,WUHU216HW,2013-02-16 15:28:00,
2013-02-16 09:33:00,45.7,31.3,30.34,North,0,0.0,0.0,57,0.00,,,0.00,WUHU216HW,2013-02-16 15:33:00,
2013-02-16 09:38:00,44.6,30.8,30.34,North,0,0.0,0.0,58,0.00,,,0.00,WUHU216HW,2013-02-16 15:38:00,
2013-02-16 09:43:00,45.4,31.9,30.34,North,0,0.0,0.0,59,0.00,,,0.00,WUHU216HW,2013-02-16 15:43:00,
2013-02-16 09:48:00,45.7,31.3,30.34,North,0,0.0,0.0,57,0.00,,,0.00,WUHU216HW,2013-02-16 15:48:00,
2013-02-16 09:53:00,45.7,31.8,30.34,North,0,0.0,0.0,58,0.00,,,0.00,WUHU216HW,2013-02-16 15:53:00,
2013-02-16 09:58:00,46.3,31.8,30.34,North,0,0.0,0.0,57,0.00,,,0.00,WUHU216HW,2013-02-16 15:58:00,
2013-02-16 10:03:00,46.1,31.1,30.34,North,0,0.0,0.0,56,0.00,,,0.00,WUHU216HW,2013-02-16 16:03:00,
2013-02-16 10:08:00,46.8,32.3,30.34,North,0,0.0,0.0,57,0.00,,,0.00,WUHU216HW,2013-02-16 16:08:00,
2013-02-16 10:13:00,47.0,31.6,30.34,North,0,0.0,0.0,55,0.00,,,0.00,WUHU216HW,2013-02-16 16:13:00,
2013-02-16 10:18:00,46.1,31.6,30.34,North,0,0.0,0.0,57,0.00,,,0.00,WUHU216HW,2013-02-16 16:18:00,
2013-02-16 10:23:00,47.0,32.5,30.34,North,0,0.0,0.0,57,0.00,,,0.00,WUHU216HW,2013-02-16 16:23:00,
2013-02-16 10:28:00,48.2,32.8,30.34,North,0,0.0,0.0,55,0.00,,,0.00,WUHU216HW,2013-02-16 16:28:00,
2013-02-16 10:33:00,48.2,31.3,30.34,North,0,0.0,0.0,52,0.00,,,0.00,WUHU216HW,2013-02-16 16:33:00,
2013-02-16 10:39:00,47.0,30.7,30.34,North,0,0.0,0.0,53,0.00,,,0.00,WUHU216HW,2013-02-16 16:39:00,
2013-02-16 10:44:00,47.9,32.4,30.34,North,0,0.0,0.0,55,0.00,,,0.00,WUHU216HW,2013-02-16 16:44:00,
2013-02-16 10:49:00,47.9,32.0,30.34,North,0,0.0,0.0,54,0.00,,,0.00,WUHU216HW,2013-02-16 16:49:00,
2013-02-16 10:54:00,47.9,31.1,30.34,North,0,0.0,0.0,52,0.00,,,0.00,WUHU216HW,2013-02-16 16:54:00,
2013-02-16 10:59:00,47.3,30.5,30.34,North,0,0.0,0.0,52,0.00,,,0.00,WUHU216HW,2013-02-16 16:59:00,
2013-02-16 11:04:00,48.2,31.9,30.34,North,0,0.0,0.0,53,0.00,,,0.00,WUHU216HW,2013-02-16 17:04:00,
2013-02-16 11:09:00,49.0,32.0,30.33,North,0,0.0,0.0,52,0.00,,,0.00,WUHU216HW,2013-02-16 17:09:00,
2013-02-16 11:14:00,49.3,31.5,30.33,North,0,0.0,0.0,50,0.00,,,0.00,WUHU216HW,2013-02-16 17:14:00,
2013-02-16 11:19:00,48.8,29.9,30.33,North,0,0.0,0.0,48,0.00,,,0.00,WUHU216HW,2013-02-16 17:19:00,
2013-02-16 11:24:00,48.6,31.7,30.33,North,0,0.0,0.0,52,0.00,,,0.00,WUHU216HW,2013-02-16 17:24:00,
2013-02-16 11:29:00,48.8,31.4,30.33,North,0,0.0,0.0,51,0.00,,,0.00,WUHU216HW,2013-02-16 17:29:00,
2013-02-16 11:34:00,49.3,29.9,30.33,North,0,0.0,0.0,47,0.00,,,0.00,WUHU216HW,2013-02-16 17:34:00,
2013-02-16 11:39:00,50.8,32.3,30.32,North,0,0.0,0.0,49,0.00,,,0.00,WUHU216HW,2013-02-16 17:39:00,
2013-02-16 11:44:00,51.7,31.4,30.32,North,0,0.0,0.0,46,0.00,,,0.00,WUHU216HW,2013-02-16 17:44:00,
2013-02-16 11:49:00,50.0,30.5,30.32,North,0,0.0,0.0,47,0.00,,,0.00,WUHU216HW,2013-02-16 17:49:00,
2013-02-16 11:54:00,49.3,31.0,30.32,North,0,0.0,0.0,49,0.00,,,0.00,WUHU216HW,2013-02-16 17:54:00,
2013-02-16 11:59:00,49.7,31.3,30.32,North,0,0.0,0.0,49,0.00,,,0.00,WUHU216HW,2013-02-16 17:59:00,
2013-02-16 12:04:00,50.4,32.0,30.32,North,0,0.0,0.0,49,0.00,,,0.00,WUHU216HW,2013-02-16 18:04:00,
2013-02-16 12:09:00,50.9,32.0,30.32,North,0,0.0,0.0,48,0.00,,,0.00,WUHU216HW,2013-02-16 18:09:00,
2013-02-16 12:14:00,51.7,30.9,30.32,North,0,0.0,0.0,45,0.00,,,0.00,WUHU216HW,2013-02-16 18:14:00,
2013-02-16 12:19:00,50.8,31.8,30.32,North,0,0.0,0.0,48,0.00,,,0.00,WUHU216HW,2013-02-16 18:19:00,
2013-02-16 12:24:00,51.3,31.2,30.31,North,0,0.0,0.0,46,0.00,,,0.00,WUHU216HW,2013-02-16 18:24:00,
2013-02-16 12:29:00,51.5,31.9,30.31,North,0,0.0,0.0,47,0.00,,,0.00,WUHU216HW,2013-02-16 18:29:00,
2013-02-16 12:34:00,51.5,31.9,30.31,North,0,0.0,0.0,47,0.00,,,0.00,WUHU216HW,2013-02-16 18:34:00,
2013-02-16 12:39:00,50.9,31.3,30.30,North,0,0.0,0.0,47,0.00,,,0.00,WUHU216HW,2013-02-16 18:39:00,
2013-02-16 12:44:00,51.5,32.4,30.30,North,0,0.0,0.0,48,0.00,,,0.00,WUHU216HW,2013-02-16 18:44:00,
2013-02-16 12:49:00,51.8,31.6,30.29,North,0,0.0,0.0,46,0.00,,,0.00,WUHU216HW,2013-02-16 18:49:00,
2013-02-16 12:54:00,51.8,32.1,30.29,North,0,0.0,0.0,47,0.00,,,0.00,WUHU216HW,2013-02-16 18:54:00,
2013-02-16 12:59:00,51.7,32.1,30.29,North,0,0.0,0.0,47,0.00,,,0.00,WUHU216HW,2013-02-16 18:59:00,
2013-02-16 13:04:00,52.9,33.1,30.28,North,0,0.0,0.0,47,0.00,,,0.00,WUHU216HW,2013-02-16 19:04:00,
2013-02-16 13:09:00,53.5,31.4,30.28,North,0,0.0,0.0,43,0.00,,,0.00,WUHU216HW,2013-02-16 19:09:00,
2013-02-16 13:14:00,52.6,31.7,30.28,North,0,0.0,0.0,45,0.00,,,0.00,WUHU216HW,2013-02-16 19:14:00,
2013-02-16 13:19:00,52.7,31.9,30.27,North,0,0.0,0.0,45,0.00,,,0.00,WUHU216HW,2013-02-16 19:19:00,
2013-02-16 13:24:00,54.7,33.7,30.27,North,0,0.0,0.0,45,0.00,,,0.00,WUHU216HW,2013-02-16 19:24:00,
2013-02-16 13:29:00,55.6,33.3,30.27,North,0,0.0,0.0,43,0.00,,,0.00,WUHU216HW,2013-02-16 19:29:00,
2013-02-16 13:34:00,54.5,33.0,30.26,North,0,0.0,0.0,44,0.00,,,0.00,WUHU216HW,2013-02-16 19:34:00,
2013-02-16 13:39:00,54.0,31.9,30.26,North,0,0.0,0.0,43,0.00,,,0.00,WUHU216HW,2013-02-16 19:39:00,
2013-02-16 13:44:00,53.6,31.6,30.26,North,0,0.0,0.0,43,0.00,,,0.00,WUHU216HW,2013-02-16 19:44:00,
2013-02-16 13:49:00,54.4,32.2,30.26,North,0,0.0,0.0,43,0.00,,,0.00,WUHU216HW,2013-02-16 19:49:00,
2013-02-16 13:54:00,54.9,31.1,30.26,North,0,0.0,0.0,40,0.00,,,0.00,WUHU216HW,2013-02-16 19:54:00,
2013-02-16 13:59:00,55.6,32.2,30.25,North,0,0.0,0.0,41,0.00,,,0.00,WUHU216HW,2013-02-16 19:59:00,
2013-02-16 14:04:00,55.1,31.8,30.25,North,0,0.0,0.0,41,0.00,,,0.00,WUHU216HW,2013-02-16 20:04:00,
2013-02-16 14:09:00,55.1,31.1,30.24,North,0,0.0,0.0,40,0.00,,,0.00,WUHU216HW,2013-02-16 20:09:00,
2013-02-16 14:14:00,55.8,31.9,30.24,North,0,0.0,0.0,40,0.00,,,0.00,WUHU216HW,2013-02-16 20:14:00,
2013-02-16 14:19:00,55.8,30.4,30.24,North,0,0.0,0.0,38,0.00,,,0.00,WUHU216HW,2013-02-16 20:19:00,
2013-02-16 14:24:00,54.9,31.1,30.24,North,0,0.0,0.0,40,0.00,,,0.00,WUHU216HW,2013-02-16 20:24:00,
2013-02-16 14:29:00,55.8,31.2,30.23,North,0,0.0,0.0,39,0.00,,,0.00,WUHU216HW,2013-02-16 20:29:00,
2013-02-16 14:34:00,56.2,30.8,30.22,North,0,0.0,0.0,38,0.00,,,0.00,WUHU216HW,2013-02-16 20:34:00,
2013-02-16 14:39:00,56.2,30.1,30.22,North,0,0.0,0.0,37,0.00,,,0.00,WUHU216HW,2013-02-16 20:39:00,
2013-02-16 14:44:00,55.8,30.4,30.22,North,0,0.0,0.0,38,0.00,,,0.00,WUHU216HW,2013-02-16 20:44:00,
2013-02-16 14:49:00,56.9,32.1,30.21,North,0,0.0,0.0,39,0.00,,,0.00,WUHU216HW,2013-02-16 20:49:00,
2013-02-16 14:54:00,59.2,32.1,30.21,North,0,0.0,0.0,36,0.00,,,0.00,WUHU216HW,2013-02-16 20:54:00,
2013-02-16 14:59:00,58.3,29.2,30.21,North,0,0.0,0.0,33,0.00,,,0.00,WUHU216HW,2013-02-16 20:59:00,
2013-02-16 15:04:00,58.1,31.2,30.21,North,0,0.0,0.0,36,0.00,,,0.00,WUHU216HW,2013-02-16 21:04:00,
2013-02-16 15:09:00,59.0,29.8,30.21,North,0,0.0,0.0,33,0.00,,,0.00,WUHU216HW,2013-02-16 21:09:00,
2013-02-16 15:14:00,58.1,29.0,30.20,North,0,0.0,0.0,33,0.00,,,0.00,WUHU216HW,2013-02-16 21:14:00,
2013-02-16 15:19:00,58.5,30.8,30.20,North,0,0.0,0.0,35,0.00,,,0.00,WUHU216HW,2013-02-16 21:19:00,
2013-02-16 15:24:00,60.1,32.9,30.20,North,0,0.0,0.0,36,0.00,,,0.00,WUHU216HW,2013-02-16 21:24:00,
2013-02-16 15:29:00,59.2,30.0,30.19,North,0,0.0,0.0,33,0.00,,,0.00,WUHU216HW,2013-02-16 21:29:00,
2013-02-16 15:34:00,58.9,29.7,30.19,North,0,0.0,0.0,33,0.00,,,0.00,WUHU216HW,2013-02-16 21:34:00,
2013-02-16 15:39:00,59.4,30.2,30.19,North,0,0.0,0.0,33,0.00,,,0.00,WUHU216HW,2013-02-16 21:39:00,
2013-02-16 15:44:00,59.8,29.7,30.19,North,0,0.0,0.0,32,0.00,,,0.00,WUHU216HW,2013-02-16 21:44:00,
2013-02-16 15:49:00,59.4,29.4,30.19,North,0,0.0,0.0,32,0.00,,,0.00,WUHU216HW,2013-02-16 21:49:00,
2013-02-16 15:54:00,59.4,30.2,30.19,North,0,0.0,0.0,33,0.00,,,0.00,WUHU216HW,2013-02-16 21:54:00,
2013-02-16 15:59:00,60.1,30.0,30.19,North,0,0.0,0.0,32,0.00,,,0.00,WUHU216HW,2013-02-16 21:59:00,
2013-02-16 16:04:00,60.5,30.3,30.19,North,0,0.0,0.0,32,0.00,,,0.00,WUHU216HW,2013-02-16 22:04:00,
2013-02-16 16:09:00,59.4,29.4,30.19,North,0,0.0,0.0,32,0.00,,,0.00,WUHU216HW,2013-02-16 22:09:00,
2013-02-16 16:14:00,59.2,28.5,30.18,North,0,0.0,0.0,31,0.00,,,0.00,WUHU216HW,2013-02-16 22:14:00,
2013-02-16 16:19:00,59.2,29.3,30.18,North,0,0.0,0.0,32,0.00,,,0.00,WUHU216HW,2013-02-16 22:19:00,
2013-02-16 16:24:00,59.9,29.2,30.18,North,0,0.0,0.0,31,0.00,,,0.00,WUHU216HW,2013-02-16 22:24:00,
2013-02-16 16:29:00,58.9,29.0,30.18,North,0,0.0,0.0,32,0.00,,,0.00,WUHU216HW,2013-02-16 22:29:00,
2013-02-16 16:34:00,59.8,30.4,30.18,North,0,0.0,0.0,33,0.00,,,0.00,WUHU216HW,2013-02-16 22:34:00,
2013-02-16 16:39:00,60.5,30.3,30.18,North,0,0.0,0.0,32,0.00,,,0.00,WUHU216HW,2013-02-16 22:39:00,
2013-02-16 16:44:00,60.5,29.6,30.18,North,0,0.0,0.0,31,0.00,,,0.00,WUHU216HW,2013-02-16 22:44:00,
2013-02-16 16:49:00,60.1,30.0,30.18,North,0,0.0,0.0,32,0.00,,,0.00,WUHU216HW,2013-02-16 22:49:00,
2013-02-16 16:54:00,59.2,29.3,30.18,North,0,0.0,0.0,32,0.00,,,0.00,WUHU216HW,2013-02-16 22:54:00,
2013-02-16 16:59:00,59.4,29.4,30.18,North,0,0.0,0.0,32,0.00,,,0.00,WUHU216HW,2013-02-16 22:59:00,
2013-02-16 17:04:00,58.3,29.2,30.18,North,0,0.0,0.0,33,0.00,,,0.00,WUHU216HW,2013-02-16 23:04:00,
2013-02-16 17:09:00,57.2,28.9,30.18,North,0,0.0,0.0,34,0.00,,,0.00,WUHU216HW,2013-02-16 23:09:00,
2013-02-16 17:14:00,57.2,28.9,30.18,North,0,0.0,0.0,34,0.00,,,0.00,WUHU216HW,2013-02-16 23:14:00,
2013-02-16 17:19:00,57.4,28.4,30.18,North,0,0.0,0.0,33,0.00,,,0.00,WUHU216HW,2013-02-16 23:19:00,
2013-02-16 17:24:00,56.5,28.3,30.17,North,0,0.0,0.0,34,0.00,,,0.00,WUHU216HW,2013-02-16 23:24:00,
2013-02-16 17:29:00,55.8,29.0,30.17,North,0,0.0,0.0,36,0.00,,,0.00,WUHU216HW,2013-02-16 23:29:00,
2013-02-16 17:34:00,55.1,29.1,30.17,North,0,0.0,0.0,37,0.00,,,0.00,WUHU216HW,2013-02-16 23:34:00,
2013-02-16 17:39:00,54.7,28.1,30.17,North,0,0.0,0.0,36,0.00,,,0.00,WUHU216HW,2013-02-16 23:39:00,
2013-02-16 17:44:00,55.3,29.3,30.17,North,0,0.0,0.0,37,0.00,,,0.00,WUHU216HW,2013-02-16 23:44:00,
2013-02-16 17:49:00,55.4,29.4,30.16,North,0,0.0,0.0,37,0.00,,,0.00,WUHU216HW,2013-02-16 23:49:00,
2013-02-16 17:55:00,55.6,30.2,30.16,North,0,0.0,0.0,38,0.00,,,0.00,WUHU216HW,2013-02-16 23:55:00,
2013-02-16 18:00:00,54.9,29.6,30.16,North,0,0.0,0.0,38,0.00,,,0.00,WUHU216HW,2013-02-17 00:00:00,
2013-02-16 18:05:00,53.3,28.2,30.16,North,0,0.0,0.0,38,0.00,,,0.00,WUHU216HW,2013-02-17 00:05:00,
2013-02-16 18:10:00,51.5,27.3,30.16,North,0,0.0,0.0,39,0.00,,,0.00,WUHU216HW,2013-02-17 00:10:00,
2013-02-16 18:15:00,50.6,27.1,30.16,North,0,0.0,0.0,40,0.00,,,0.00,WUHU216HW,2013-02-17 00:15:00,
2013-02-16 18:20:00,49.7,27.5,30.16,North,0,0.0,0.0,42,0.00,,,0.00,WUHU216HW,2013-02-17 00:20:00,
2013-02-16 18:25:00,49.3,27.6,30.16,North,0,0.0,0.0,43,0.00,,,0.00,WUHU216HW,2013-02-17 00:25:00,
2013-02-16 18:30:00,48.6,27.0,30.16,North,0,0.0,0.0,43,0.00,,,0.00,WUHU216HW,2013-02-17 00:30:00,
2013-02-16 18:35:00,48.1,26.5,30.15,North,0,0.0,0.0,43,0.00,,,0.00,WUHU216HW,2013-02-17 00:35:00,
2013-02-16 18:40:00,47.5,27.1,30.16,North,0,0.0,0.0,45,0.00,,,0.00,WUHU216HW,2013-02-17 00:40:00,
2013-02-16 18:45:00,46.1,27.4,30.15,North,0,0.0,0.0,48,0.00,,,0.00,WUHU216HW,2013-02-17 00:45:00,
2013-02-16 18:50:00,45.2,27.1,30.15,North,0,0.0,0.0,49,0.00,,,0.00,WUHU216HW,2013-02-17 00:50:00,
2013-02-16 18:55:00,45.2,27.1,30.15,North,0,0.0,0.0,49,0.00,,,0.00,WUHU216HW,2013-02-17 00:55:00,
2013-02-16 19:00:00,45.2,27.6,30.15,North,0,0.0,0.0,50,0.00,,,0.00,WUHU216HW,2013-02-17 01:00:00,
2013-02-16 19:05:00,45.0,27.6,30.16,North,0,0.0,0.0,50,0.00,,,0.00,WUHU216HW,2013-02-17 01:05:00,
2013-02-16 19:10:00,44.8,27.4,30.15,North,0,0.0,0.0,50,0.00,,,0.00,WUHU216HW,2013-02-17 01:10:00,
2013-02-16 19:15:00,44.6,27.6,30.15,North,0,0.0,0.0,51,0.00,,,0.00,WUHU216HW,2013-02-17 01:15:00,
2013-02-16 19:20:00,44.3,27.7,30.15,North,0,0.0,0.0,52,0.00,,,0.00,WUHU216HW,2013-02-17 01:20:00,
2013-02-16 19:25:00,44.1,28.0,30.15,North,0,0.0,0.0,53,0.00,,,0.00,WUHU216HW,2013-02-17 01:25:00,
2013-02-16 19:30:00,43.9,27.9,30.15,North,0,0.0,0.0,53,0.00,,,0.00,WUHU216HW,2013-02-17 01:30:00,
2013-02-16 19:35:00,43.4,27.4,30.15,North,0,0.0,0.0,53,0.00,,,0.00,WUHU216HW,2013-02-17 01:35:00,
2013-02-16 19:40:00,42.7,27.1,30.14,North,0,0.0,0.0,54,0.00,,,0.00,WUHU216HW,2013-02-17 01:40:00,
2013-02-16 19:45:00,42.1,27.0,30.15,North,0,0.0,0.0,55,0.00,,,0.00,WUHU216HW,2013-02-17 01:45:00,
2013-02-16 19:50:00,42.1,27.5,30.14,North,0,0.0,0.0,56,0.00,,,0.00,WUHU216HW,2013-02-17 01:50:00,
2013-02-16 19:55:00,41.9,27.7,30.14,North,0,0.0,0.0,57,0.00,,,0.00,WUHU216HW,2013-02-17 01:55:00,
2013-02-16 20:00:00,41.6,27.9,30.14,North,0,0.0,0.0,58,0.00,,,0.00,WUHU216HW,2013-02-17 02:00:00,
2013-02-16 20:05:00,41.0,27.4,30.14,North,0,0.0,0.0,58,0.00,,,0.00,WUHU216HW,2013-02-17 02:05:00,
2013-02-16 20:10:00,40.7,28.3,30.14,North,0,0.0,0.0,61,0.00,,,0.00,WUHU216HW,2013-02-17 02:10:00,
2013-02-16 20:15:00,40.5,28.1,30.14,North,0,0.0,0.0,61,0.00,,,0.00,WUHU216HW,2013-02-17 02:15:00,
2013-02-16 20:20:00,40.7,28.3,30.14,North,0,0.0,0.0,61,0.00,,,0.00,WUHU216HW,2013-02-17 02:20:00,
2013-02-16 20:25:00,40.7,28.6,30.14,North,0,0.0,0.0,62,0.00,,,0.00,WUHU216HW,2013-02-17 02:25:00,
2013-02-16 20:30:00,40.7,28.3,30.15,North,0,0.0,0.0,61,0.00,,,0.00,WUHU216HW,2013-02-17 02:30:00,
2013-02-16 20:35:00,40.7,28.6,30.14,North,0,0.0,0.0,62,0.00,,,0.00,WUHU216HW,2013-02-17 02:35:00,
2013-02-16 20:40:00,40.7,29.1,30.14,North,0,0.0,0.0,63,0.00,,,0.00,WUHU216HW,2013-02-17 02:40:00,
2013-02-16 20:45:00,40.7,29.1,30.14,North,0,0.0,0.0,63,0.00,,,0.00,WUHU216HW,2013-02-17 02:45:00,
2013-02-16 20:50:00,40.5,28.9,30.14,North,0,0.0,0.0,63,0.00,,,0.00,WUHU216HW,2013-02-17 02:50:00,
2013-02-16 20:55:00,40.0,29.8,30.14,North,0,0.0,0.0,67,0.00,,,0.00,WUHU216HW,2013-02-17 02:55:00,
2013-02-16 21:00:00,39.6,29.1,30.14,North,0,0.0,0.0,66,0.00,,,0.00,WUHU216HW,2013-02-17 03:00:00,
2013-02-16 21:05:00,39.4,29.3,30.14,North,0,0.0,0.0,67,0.00,,,0.00,WUHU216HW,2013-02-17 03:05:00,
2013-02-16 21:10:00,39.1,29.7,30.14,North,0,0.0,0.0,69,0.00,,,0.00,WUHU216HW,2013-02-17 03:10:00,
2013-02-16 21:15:00,38.9,29.5,30.15,North,0,0.0,0.0,69,0.00,,,0.00,WUHU216HW,2013-02-17 03:15:00,
2013-02-16 21:20:00,38.7,30.4,30.14,North,0,0.0,0.0,72,0.00,,,0.00,WUHU216HW,2013-02-17 03:20:00,
2013-02-16 21:25:00,38.5,30.6,30.15,North,0,0.0,0.0,73,0.00,,,0.00,WUHU216HW,2013-02-17 03:25:00,
2013-02-16 21:30:00,38.2,30.0,30.15,North,0,0.0,0.0,72,0.00,,,0.00,WUHU216HW,2013-02-17 03:30:00,
2013-02-16 21:35:00,38.0,29.4,30.15,North,0,0.0,0.0,71,0.00,,,0.00,WUHU216HW,2013-02-17 03:35:00,
2013-02-16 21:40:00,37.6,29.1,30.15,North,0,0.0,0.0,71,0.00,,,0.00,WUHU216HW,2013-02-17 03:40:00,
2013-02-16 21:45:00,37.4,28.6,30.15,North,0,0.0,0.0,70,0.00,,,0.00,WUHU216HW,2013-02-17 03:45:00,
2013-02-16 21:50:00,37.1,28.6,30.15,North,0,0.0,0.0,71,0.00,,,0.00,WUHU216HW,2013-02-17 03:50:00,
2013-02-16 21:55:00,37.1,29.3,30.15,North,0,0.0,0.0,73,0.00,,,0.00,WUHU216HW,2013-02-17 03:55:00,
2013-02-16 22:00:00,37.1,28.9,30.15,North,0,0.0,0.0,72,0.00,,,0.00,WUHU216HW,2013-02-17 04:00:00,
2013-02-16 22:05:00,36.9,28.7,30.15,North,0,0.0,0.0,72,0.00,,,0.00,WUHU216HW,2013-02-17 04:05:00,
2013-02-16 22:10:00,36.7,28.9,30.15,North,0,0.0,0.0,73,0.00,,,0.00,WUHU216HW,2013-02-17 04:10:00,
2013-02-16 22:15:00,36.5,30.0,30.15,North,0,0.0,0.0,77,0.00,,,0.00,WUHU216HW,2013-02-17 04:15:00,
2013-02-16 22:20:00,36.4,29.8,30.15,North,0,0.0,0.0,77,0.00,,,0.00,WUHU216HW,2013-02-17 04:20:00,
2013-02-16 22:25:00,36.4,29.5,30.15,North,0,0.0,0.0,76,0.00,,,0.00,WUHU216HW,2013-02-17 04:25:00,
2013-02-16 22:30:00,36.2,29.4,30.15,North,0,0.0,0.0,76,0.00,,,0.00,WUHU216HW,2013-02-17 04:30:00,
2013-02-16 22:35:00,35.5,29.3,30.14,North,0,0.0,0.0,78,0.00,,,0.00,WUHU216HW,2013-02-17 04:35:00,
2013-02-16 22:40:00,35.1,28.5,30.14,North,0,0.0,0.0,77,0.00,,,0.00,WUHU216HW,2013-02-17 04:40:00,
2013-02-16 22:45:00,34.9,29.0,30.14,North,0,0.0,0.0,79,0.00,,,0.00,WUHU216HW,2013-02-17 04:45:00,
2013-02-16 22:50:00,34.9,29.3,30.14,North,0,0.0,0.0,80,0.00,,,0.00,WUHU216HW,2013-02-17 04:50:00,
2013-02-16 22:55:00,34.9,28.7,30.14,North,0,0.0,0.0,78,0.00,,,0.00,WUHU216HW,2013-02-17 04:55:00,
2013-02-16 23:00:00,34.7,28.8,30.14,North,0,0.0,0.0,79,0.00,,,0.00,WUHU216HW,2013-02-17 05:00:00,
2013-02-16 23:01:00,34.6,28.6,30.14,North,0,0.0,0.0,79,0.00,,,0.00,WUHU216HW,2013-02-17 05:01:00,
2013-02-16 23:06:00,34.4,28.8,30.14,North,0,0.0,0.0,80,0.00,,,0.00,WUHU216HW,2013-02-17 05:06:00,
2013-02-16 23:11:00,34.2,28.9,30.14,North,0,0.0,0.0,81,0.00,,,0.00,WUHU216HW,2013-02-17 05:11:00,
2013-02-16 23:16:00,34.2,29.2,30.14,North,0,0.0,0.0,82,0.00,,,0.00,WUHU216HW,2013-02-17 05:16:00,
2013-02-16 23:21:00,34.0,28.4,30.13,North,0,0.0,0.0,80,0.00,,,0.00,WUHU216HW,2013-02-17 05:21:00,
2013-02-16 23:26:00,33.8,28.8,30.13,North,0,0.0,0.0,82,0.00,,,0.00,WUHU216HW,2013-02-17 05:26:00,
2013-02-16 23:31:00,33.8,28.3,30.13,North,0,0.0,0.0,80,0.00,,,0.00,WUHU216HW,2013-02-17 05:31:00,
2013-02-16 23:37:00,34.0,28.4,30.13,North,0,0.0,0.0,80,0.00,,,0.00,WUHU216HW,2013-02-17 05:37:00,
2013-02-16 23:42:00,34.4,28.4,30.12,North,0,0.0,0.0,79,0.00,,,0.00,WUHU216HW,2013-02-17 05:42:00,
2013-02-16 23:47:00,35.1,28.5,30.12,North,0,0.0,0.0,77,0.00,,,0.00,WUHU216HW,2013-02-17 05:47:00,
2013-02-16 23:52:00,36.2,29.0,30.12,North,0,0.0,0.0,75,0.00,,,0.00,WUHU216HW,2013-02-17 05:52:00,
2013-02-16 23:57:00,37.1,29.3,30.12,North,0,0.0,0.0,73,0.00,,,0.00,WUHU216HW,2013-02-17 05:57:00,